Stillwater, OK

6:50 PM CST on February 24, 2018 (GMT -0600)
Stillwater Municipal

Weather History for KSWO - March, 2013

Change the Weather History Date:

Friday, March 22, 2013

  Actual Average Record
Temperature  
Mean Temperature 42 °F -  
Max Temperature 48 °F 60 °F 84 °F (2011)
Min Temperature 37 °F 38 °F 19 °F (2002)
Degree Days  
Heating Degree Days 24    
Moisture  
Dew Point 35 °F    
Average Humidity 82    
Maximum Humidity 96    
Minimum Humidity 66    
Precipitation  
Precipitation 0.35 in - - ()
Sea Level Pressure  
Sea Level Pressure 29.86 in    
Wind  
Wind Speed 12 mph (NE)    
Max Wind Speed 15 mph    
Max Gust Speed 21 mph    
Visibility 9 miles    
Events Rain , Thunderstorm    
Averages and records for this station are not official NWS values.
T = Trace of Precipitation, MM = Missing Value Source: NWS Daily Summary

Daily Weather History Graph

Daily Weather History Graph

Search for Another Location

Airport or City:

Trip Planner

Search our weather history database for the weather conditions in past years. The results will help you decide how hot, cold, wet, or windy it might be!

Date:

Astronomy

Mar. 22, 2013 Rise Set
Actual Time 7:28 AM CDT 7:42 PM CDT
Civil Twilight 7:03 AM CDT 8:07 PM CDT
Nautical Twilight 6:33 AM CDT 8:37 PM CDT
Astronomical Twilight 6:02 AM CDT 9:08 PM CDT
Moon 3:17 PM CDT (3/22) 4:22 AM CDT (3/22)
Length of Visible Light 13h 04m
Length of Day
12h 13m
Waxing Gibbous, 77% of the Moon is Illuminated
Mar 22
Waxing Gibbous
Mar 27
Full
Apr 2
Last Quarter
Apr 10
New
Apr 18
First Quarter

Hourly Weather History & Observations

Time (CDT) Temp. Windchill Dew Point Humidity Pressure Visibility Wind Dir Wind Speed Gust Speed Precip Events Conditions
12:35 AM 39.2 °F 30.8 °F 32.0 °F 75% 29.77 in 10.0 mi East 15.0 mph 19.6 mph N/A   Overcast
12:53 AM 39.9 °F 32.5 °F 32.0 °F 73% 29.78 in 10.0 mi ENE 12.7 mph - N/A   Overcast
1:12 AM 39.2 °F 31.2 °F 33.8 °F 81% 29.77 in 10.0 mi NE 13.8 mph - N/A   Overcast
1:53 AM 39.9 °F 31.8 °F 34.0 °F 79% 29.78 in 10.0 mi ENE 15.0 mph 20.7 mph 0.00 in Rain Light Rain
2:12 AM 39.2 °F 32.0 °F 33.8 °F 81% 29.78 in 10.0 mi NE 11.5 mph - N/A   Overcast
2:24 AM 39.2 °F 32.5 °F 33.8 °F 81% 29.82 in 9.0 mi North 10.4 mph - 0.01 in Rain Light Rain
2:53 AM 37.9 °F 29.6 °F 35.1 °F 89% 29.81 in 7.0 mi NE 13.8 mph - 0.16 in Rain Light Rain
3:02 AM 37.4 °F 28.5 °F 35.6 °F 93% 29.81 in 8.0 mi NE 15.0 mph - 0.00 in   Overcast
3:34 AM 37.4 °F 30.3 °F 35.6 °F 93% 29.84 in 10.0 mi NE 10.4 mph 19.6 mph 0.00 in Rain , Thunderstorm Light Rain
3:49 AM 39.2 °F 33.0 °F 35.6 °F 87% 29.83 in 10.0 mi East 9.2 mph - 0.00 in   Overcast
3:53 AM 39.0 °F 33.4 °F 35.1 °F 86% 29.83 in 10.0 mi ENE 8.1 mph - 0.00 in   Overcast
4:05 AM 37.4 °F 29.3 °F 35.6 °F 93% 29.83 in 2.5 mi North 12.7 mph - 0.11 in Rain Heavy Rain
4:16 AM 37.4 °F 30.3 °F 35.6 °F 93% 29.85 in 3.0 mi North 10.4 mph - 0.17 in Rain Rain
4:39 AM 37.4 °F 28.9 °F 35.6 °F 93% 29.84 in 6.0 mi NNE 13.8 mph - 0.18 in Rain Light Rain
4:53 AM 37.9 °F 30.9 °F 36.0 °F 93% 29.85 in 7.0 mi NNE 10.4 mph - 0.19 in Rain Light Rain
5:00 AM 37.4 °F 30.3 °F 35.6 °F 93% 29.85 in 7.0 mi NNE 10.4 mph - 0.00 in Rain Light Rain
5:53 AM 37.0 °F 30.4 °F 36.0 °F 96% 29.86 in 6.0 mi NNE 9.2 mph - 0.00 in   Overcast
6:53 AM 37.0 °F 29.3 °F 35.1 °F 93% 29.88 in 8.0 mi NNE 11.5 mph - N/A   Overcast
7:53 AM 37.0 °F 31.0 °F 34.0 °F 89% 29.90 in 8.0 mi NNE 8.1 mph - N/A   Overcast
8:53 AM 37.0 °F 30.4 °F 35.1 °F 93% 29.90 in 8.0 mi NNE 9.2 mph - N/A   Overcast
9:53 AM 37.9 °F 30.5 °F 35.1 °F 89% 29.89 in 8.0 mi NE 11.5 mph - N/A   Overcast
10:53 AM 39.0 °F 34.8 °F 35.1 °F 86% 29.93 in 9.0 mi North 5.8 mph - N/A   Overcast
11:44 AM 39.2 °F 33.6 °F 35.6 °F 87% 29.92 in 10.0 mi North 8.1 mph - N/A   Overcast
11:53 AM 41.0 °F 34.7 °F 36.0 °F 82% 29.92 in 10.0 mi North 10.4 mph - N/A   Overcast
12:53 PM 42.1 °F 36.1 °F 36.0 °F 79% 29.93 in 9.0 mi North 10.4 mph - N/A   Overcast
1:21 PM 42.8 °F 37.0 °F 35.6 °F 76% 29.91 in 10.0 mi North 10.4 mph - N/A   Overcast
1:53 PM 44.1 °F 39.0 °F 36.0 °F 73% 29.91 in 9.0 mi North 9.2 mph - N/A   Overcast
2:53 PM 45.0 °F 39.7 °F 36.0 °F 71% 29.89 in 8.0 mi North 10.4 mph - N/A   Overcast
3:53 PM 45.0 °F 40.1 °F 36.0 °F 71% 29.88 in 10.0 mi NNE 9.2 mph - N/A   Overcast
4:53 PM 46.0 °F 41.9 °F 36.0 °F 68% 29.87 in 10.0 mi NE 8.1 mph - N/A   Overcast
5:53 PM 46.9 °F - 36.0 °F 66% 29.86 in 10.0 mi NNE 9.2 mph - N/A   Overcast
6:53 PM 46.9 °F - 36.0 °F 66% 29.86 in 10.0 mi ENE 8.1 mph - N/A   Overcast
7:53 PM 46.9 °F - 36.0 °F 66% 29.86 in 10.0 mi NE 9.2 mph - N/A   Overcast
8:53 PM 46.0 °F 41.4 °F 37.0 °F 71% 29.86 in 10.0 mi ENE 9.2 mph - N/A   Overcast
9:53 PM 45.0 °F 40.1 °F 36.0 °F 71% 29.91 in 10.0 mi ENE 9.2 mph - N/A   Overcast
10:53 PM 44.1 °F 39.5 °F 36.0 °F 73% 29.92 in 10.0 mi ENE 8.1 mph - N/A   Overcast
11:53 PM 43.0 °F 39.5 °F 36.0 °F 76% 29.93 in 10.0 mi ENE 5.8 mph - N/A   Overcast